Home > Weather > Ushuaia > Past weeks

Flag for Argentina Past Weather in Ushuaia, Tierra del Fuego, Argentina — Yesterday and Last 2 Weeks

Now
36 °F

Scattered clouds.


Feels Like: 36 °F
Forecast: 34 / 44 °F
Wind: No wind

Location: Ushuaia Aerodrome

Current Time: Aug 24, 2016 at 11:08:18 AM

Latest Report: Aug 24, 2016 at 10:00 AM


Visibility: N/A

Pressure: 29.62 "Hg

Humidity: 87%

Dew Point: 32 °F

Location of UshuaiaLocation

Past Weather in Ushuaia — Graph

°F

Ushuaia Temperature Yesterday

Maximum temperature yesterday: 41 °F (at 4:00 AM)
Minimum temperature yesterday: 39 °F (at 12:00 AM)
Average temperature yesterday: 39 °F

High & Low Weather Summary for the Past Weeks

 TemperatureHumidityPressure
High43 °F (Aug 21, 2:00 PM)100% (Aug 9, 1:00 PM)30.07 "Hg (Aug 9, 1:00 PM)
Low25 °F (Aug 13, 11:00 AM)52% (Aug 21, 1:00 AM)29.15 "Hg (Aug 9, 10:00 AM)
Average35 °F81%29.62 "Hg
* Reported Aug 9 10:00 AM — Aug 24 10:00 AM, Ushuaia, Weather by CustomWeather, © 2016

Note: Actual official high and low records may vary slightly from our data, if they occured in-between our weather recording intervals... More about our weather records

Advertising

Ushuaia Weather History for the Previous 24 Hours

Scroll right to see more
 ConditionsComfort  
Time TempWeatherWind HumidityBarometerVisibility
10:00 AM
Wed, Aug 24
36 °FScattered clouds.No wind87%29.62 "HgN/A
9:00 AM36 °FBroken clouds.6 mph87%29.62 "HgN/A
8:00 AM34 °FBroken clouds.5 mph87%29.62 "HgN/A
7:00 AM34 °FClear.5 mph87%29.62 "Hg10 mi
6:00 AM36 °FPassing clouds.No wind75%29.62 "HgN/A
5:00 AM36 °FPassing clouds.5 mph75%29.62 "HgN/A
4:00 AM37 °FPassing clouds.8 mph75%29.62 "HgN/A
3:00 AM37 °FPassing clouds.5 mph75%29.62 "HgN/A
2:00 AM37 °FPassing clouds.6 mph75%29.62 "HgN/A
1:00 AM37 °FPartly cloudy.No wind75%29.59 "HgN/A
12:00 AM39 °FChilly.N/A70%29.59 "HgN/A
11:00 PM
Tue, Aug 23
39 °FPartly cloudy.7 mph75%29.59 "HgN/A
10:00 PM39 °FPartly cloudy.10 mph81%29.56 "HgN/A
9:00 PM39 °FPassing clouds.12 mph81%29.56 "HgN/A
8:00 PM39 °FPassing clouds.14 mph81%29.53 "HgN/A
7:00 PM39 °FPassing clouds.18 mph87%29.50 "HgN/A
6:00 PM39 °FPassing clouds.14 mph87%29.47 "HgN/A
5:00 PM39 °FPartly sunny.14 mph87%29.47 "HgN/A
4:00 PM39 °FScattered showers. Partly sunny.25 mph87%29.45 "HgN/A
3:00 PM41 °FScattered showers. Partly sunny.23 mph81%29.45 "HgN/A
2:00 PM41 °FPartly sunny.17 mph81%29.42 "HgN/A
1:00 PM39 °FPartly sunny.21 mph87%29.42 "HgN/A
12:00 PM39 °FBroken clouds.23 mph87%29.42 "HgN/A
11:00 AM39 °FBroken clouds.22 mph87%29.42 "HgN/A
Weather by CustomWeather, © 2016

See weather overviewHow to use our weather pages